Goshen, IN

12:49 AM EDT on June 27, 2017 (GMT -0400)
Goshen Municipal

Weather History for KGSH - February, 2015

Change the Weather History Date:

Sunday, February 1, 2015

  Actual Average Record
Temperature  
Mean Temperature 25 °F -  
Max Temperature 33 °F 33 °F 55 °F (1968)
Min Temperature 16 °F 20 °F -6 °F (1971)
Degree Days  
Heating Degree Days 40    
Moisture  
Dew Point 24 °F    
Average Humidity 89    
Maximum Humidity 100    
Minimum Humidity 78    
Precipitation  
Precipitation 0.43 in - - ()
Sea Level Pressure  
Sea Level Pressure 29.87 in    
Wind  
Wind Speed 9 mph (ENE)    
Max Wind Speed 21 mph    
Max Gust Speed 30 mph    
Visibility 1 miles    
Events Fog , Snow    
Averages and records for this station are not official NWS values.
T = Trace of Precipitation, MM = Missing Value Source: NWS Daily Summary

Daily Weather History Graph

Daily Weather History Graph

Search for Another Location

Airport or City:

Trip Planner

Search our weather history database for the weather conditions in past years. The results will help you decide how hot, cold, wet, or windy it might be!

Date:

Astronomy

Feb. 01, 2015 Rise Set
Actual Time 7:55 AM EST 5:58 PM EST
Civil Twilight 7:25 AM EST 6:28 PM EST
Nautical Twilight 6:52 AM EST 7:01 PM EST
Astronomical Twilight 6:20 AM EST 7:33 PM EST
Moon 4:15 PM EST (2/1) 6:03 AM EST (2/1)
Length of Visible Light 11h 02m
Length of Day
10h 03m
Waxing Gibbous, 95% of the Moon is Illuminated
Feb 1
Waxing Gibbous
Feb 3
Full
Feb 11
Last Quarter
Feb 18
New
Feb 25
First Quarter

Hourly Weather History & Observations

Time (EST) Temp. Windchill Dew Point Humidity Pressure Visibility Wind Dir Wind Speed Gust Speed Precip Events Conditions
12:53 AM 33.1 °F 27.7 °F 30.9 °F 92% 30.18 in 1.2 mi SW 5.8 mph - 0.02 in Snow Light Snow
1:53 AM 33.1 °F 28.7 °F 30.9 °F 92% 30.16 in 1.0 mi SSW 4.6 mph - 0.02 in Snow Light Snow
2:53 AM 32.0 °F - 30.9 °F 96% 30.14 in 1.2 mi Calm Calm - 0.03 in Snow Light Snow
3:35 AM 33.1 °F - 30.9 °F 92% 30.10 in 1.0 mi Calm Calm - 0.02 in Snow Light Snow
3:49 AM 32.0 °F - 30.2 °F 93% 30.10 in 1.0 mi Calm Calm - 0.02 in Snow Light Snow
3:53 AM 32.0 °F - 30.9 °F 96% 30.12 in 1.0 mi Calm Calm - 0.02 in Snow Light Snow
4:20 AM 32.0 °F - 30.9 °F 96% 30.09 in 1.0 mi Calm Calm - 0.02 in Snow Light Snow
4:53 AM 32.0 °F 27.5 °F 30.9 °F 96% 30.10 in 0.8 mi ENE 4.6 mph - 0.04 in Snow Light Snow
5:11 AM 32.0 °F 27.5 °F 30.9 °F 96% 30.07 in 1.5 mi East 4.6 mph - 0.01 in Snow Light Snow
5:21 AM 32.0 °F 26.4 °F 30.9 °F 96% 30.07 in 2.5 mi East 5.8 mph - 0.01 in Snow Light Snow
5:32 AM 32.0 °F 26.4 °F 30.9 °F 96% 30.07 in 2.5 mi East 5.8 mph - 0.01 in   Overcast
5:39 AM 32.0 °F 27.5 °F 30.9 °F 96% 30.07 in 3.0 mi East 4.6 mph - 0.01 in   Overcast
5:53 AM 32.0 °F 26.4 °F 30.9 °F 96% 30.09 in 3.0 mi East 5.8 mph - 0.01 in   Overcast
6:00 AM 32.0 °F 27.5 °F 30.9 °F 96% 30.06 in 2.5 mi East 4.6 mph - 0.00 in Snow Light Snow
6:31 AM 32.0 °F 24.8 °F 30.9 °F 96% 30.05 in 1.8 mi East 8.1 mph - 0.00 in Snow Light Snow
6:42 AM 32.0 °F 25.6 °F 30.9 °F 96% 30.04 in 2.0 mi East 6.9 mph - 0.00 in   Overcast
6:53 AM 32.0 °F 26.4 °F 30.9 °F 96% 30.07 in 1.8 mi ESE 5.8 mph - 0.00 in Snow Light Snow
7:15 AM 32.0 °F 26.4 °F 30.9 °F 96% 30.04 in 0.8 mi ESE 5.8 mph - 0.01 in Snow Light Snow
7:53 AM 32.0 °F 25.6 °F 30.9 °F 96% 30.04 in 0.8 mi East 6.9 mph - 0.04 in Snow Light Snow
8:14 AM 32.0 °F 24.8 °F 30.9 °F 96% 30.01 in 0.2 mi East 8.1 mph - 0.02 in Fog , Snow Snow
8:27 AM 32.0 °F 24.2 °F 30.9 °F 96% 30.00 in 0.2 mi East 9.2 mph - 0.03 in Fog , Snow Snow
8:53 AM 32.0 °F 23.0 °F 30.9 °F 96% 30.01 in 0.2 mi East 11.5 mph - 0.07 in Fog , Snow Heavy Snow
9:53 AM 30.9 °F 19.8 °F 30.9 °F 100% 29.97 in 0.2 mi East 16.1 mph - 0.04 in Fog , Snow Snow
10:53 AM 30.9 °F 20.7 °F 30.0 °F 96% 29.95 in 0.2 mi East 13.8 mph - 0.02 in Fog , Snow Snow
11:53 AM 28.9 °F 16.5 °F 27.0 °F 92% 29.92 in 0.2 mi East 18.4 mph - 0.02 in Fog , Snow Snow
12:53 PM 27.0 °F 13.5 °F 24.1 °F 89% 29.86 in 0.2 mi East 19.6 mph - 0.02 in Fog , Snow Snow
1:53 PM 27.0 °F 14.3 °F 24.1 °F 89% 29.81 in 0.2 mi East 17.3 mph 25.3 mph 0.02 in Fog , Snow Snow
2:20 PM 27.0 °F 15.2 °F 23.0 °F 85% 29.76 in 0.8 mi ENE 15.0 mph - 0.00 in Snow Light Snow
2:31 PM 27.0 °F 14.7 °F 23.0 °F 85% 29.74 in 1.0 mi ENE 16.1 mph 23.0 mph 0.00 in Snow Light Snow
2:40 PM 26.1 °F 12.7 °F 23.0 °F 88% 29.74 in 0.5 mi ENE 18.4 mph - 0.00 in Fog , Snow Snow
2:48 PM 26.6 °F 14.3 °F 23.0 °F 86% 29.73 in 0.8 mi ENE 16.1 mph - 0.00 in Snow Light Snow
2:50 PM 26.6 °F 14.3 °F 23.0 °F 86% 29.73 in 0.5 mi ENE 16.1 mph - 0.01 in Fog , Snow Snow
2:53 PM 26.1 °F 13.1 °F 23.0 °F 88% 29.76 in 0.5 mi ENE 17.3 mph - 0.01 in Fog , Snow Snow
3:10 PM 26.1 °F 12.7 °F 21.9 °F 84% 29.73 in 0.5 mi ENE 18.4 mph - 0.00 in Fog , Snow Snow
3:53 PM 26.1 °F 15.0 °F 21.9 °F 84% 29.73 in 0.2 mi NE 12.7 mph - 0.00 in Fog , Snow Snow
4:24 PM 25.0 °F 12.6 °F 21.9 °F 88% 29.70 in 0.5 mi ENE 15.0 mph 24.2 mph 0.01 in Fog , Snow Snow
4:49 PM 24.8 °F 11.9 °F 21.2 °F 86% 29.69 in 0.2 mi NE 16.1 mph 28.8 mph 0.01 in Fog , Snow Snow
4:53 PM 25.0 °F 13.1 °F 21.0 °F 85% 29.72 in 0.2 mi NE 13.8 mph - 0.02 in Fog , Snow Snow
5:53 PM 23.0 °F 9.6 °F 19.0 °F 85% 29.70 in 0.5 mi NE 16.1 mph 26.5 mph 0.00 in Fog , Snow Snow
6:26 PM 21.9 °F 8.2 °F 19.0 °F 89% 29.67 in 0.5 mi NE 16.1 mph - 0.01 in Fog , Snow Snow
6:48 PM 21.2 °F 7.3 °F 17.6 °F 86% 29.68 in 0.8 mi NNE 16.1 mph - 0.01 in Snow Light Snow
6:53 PM 21.0 °F 7.1 °F 18.0 °F 88% 29.70 in 0.8 mi NNE 16.1 mph 23.0 mph 0.01 in Snow Light Snow
7:06 PM 19.9 °F 4.8 °F 17.1 °F 89% 29.67 in 1.0 mi NE 18.4 mph - 0.01 in Snow Light Snow
7:32 PM 19.0 °F 5.0 °F 15.1 °F 85% 29.67 in 1.5 mi NNE 15.0 mph 25.3 mph 0.01 in Snow Light Snow
7:53 PM 18.0 °F 1.7 °F 14.0 °F 84% 29.69 in 1.5 mi NE 19.6 mph 27.6 mph 0.01 in Snow Light Snow
8:36 PM 18.0 °F 2.6 °F 12.9 °F 81% 29.66 in 2.0 mi NNE 17.3 mph 26.5 mph 0.00 in Snow Light Snow
8:53 PM 17.1 °F 0.1 °F 12.0 °F 81% 29.70 in 2.0 mi NNE 20.7 mph 29.9 mph 0.00 in Snow Light Snow
9:10 PM 18.0 °F 3.1 °F 12.0 °F 78% 29.67 in 3.0 mi NNE 16.1 mph - 0.00 in Snow Light Snow
9:20 PM 17.1 °F 0.6 °F 12.0 °F 81% 29.66 in 2.5 mi NNE 19.6 mph 27.6 mph 0.00 in Snow Light Snow
9:36 PM 17.1 °F 1.5 °F 12.0 °F 81% 29.66 in 3.0 mi NNE 17.3 mph - 0.00 in Snow Light Snow
9:50 PM 17.6 °F 1.7 °F 12.2 °F 79% 29.67 in 2.5 mi NNE 18.4 mph 24.2 mph 0.00 in Snow Light Snow
9:53 PM 17.1 °F 1.0 °F 12.0 °F 81% 29.71 in 2.0 mi NNE 18.4 mph - 0.00 in Snow Light Snow
10:07 PM 17.1 °F 0.1 °F 12.0 °F 81% 29.67 in 1.8 mi NNE 20.7 mph 26.5 mph 0.01 in Snow Light Snow
10:40 PM 17.1 °F 0.6 °F 12.0 °F 81% 29.67 in 1.0 mi NNE 19.6 mph 26.5 mph 0.01 in Snow Light Snow
10:53 PM 17.1 °F 2.0 °F 12.0 °F 81% 29.71 in 1.0 mi North 16.1 mph - 0.01 in Snow Light Snow
11:53 PM 16.0 °F 0.1 °F 10.9 °F 81% 29.73 in 1.2 mi North 17.3 mph 26.5 mph 0.00 in Snow Light Snow